Cook, MN

7:20 PM CDT on October 19, 2017 (GMT -0500)
Cook Municipal

Weather History for KCQM - February, 2013

Change the Weather History Date:

Friday, February 22, 2013

  Actual Average Record
Temperature  
Mean Temperature 19 °F -  
Max Temperature 26 °F 26 °F 44 °F (1998)
Min Temperature 12 °F 5 °F -25 °F (2015)
Degree Days  
Heating Degree Days 46    
Moisture  
Dew Point 17 °F    
Average Humidity 91    
Maximum Humidity 100    
Minimum Humidity 80    
Precipitation  
Precipitation 0.00 in - - ()
Sea Level Pressure  
Sea Level Pressure 29.98 in    
Wind  
Wind Speed 3 mph (NE)    
Max Wind Speed 6 mph    
Max Gust Speed -    
Visibility 7 miles    
Events Snow    
Averages and records for this station are not official NWS values.
T = Trace of Precipitation, MM = Missing Value Source: NWS Daily Summary

Daily Weather History Graph

Daily Weather History Graph

Search for Another Location

Airport or City:

Trip Planner

Search our weather history database for the weather conditions in past years. The results will help you decide how hot, cold, wet, or windy it might be!

Date:

Astronomy

Feb. 22, 2013 Rise Set
Actual Time 7:04 AM CST 5:45 PM CST
Civil Twilight 6:32 AM CST 6:16 PM CST
Nautical Twilight 5:56 AM CST 6:52 PM CST
Astronomical Twilight 5:21 AM CST 7:28 PM CST
Moon 2:48 PM CST (2/22) 4:58 AM CST (2/22)
Length of Visible Light 11h 43m
Length of Day
10h 41m
Waxing Gibbous, 90% of the Moon is Illuminated
Feb 22
Waxing Gibbous
Feb 25
Full
Mar 4
Last Quarter
Mar 11
New
Mar 19
First Quarter

Hourly Weather History & Observations

Time (CST) Temp. Windchill Dew Point Humidity Pressure Visibility Wind Dir Wind Speed Gust Speed Precip Events Conditions
12:16 AM 12.2 °F 6.1 °F 10.4 °F 92% 30.19 in 10.0 mi NE 3.5 mph - N/A   Overcast
12:37 AM 12.2 °F - 10.4 °F 92% 30.18 in 10.0 mi Calm Calm - N/A   Overcast
12:56 AM 12.2 °F - 10.4 °F 92% 30.18 in 10.0 mi Calm Calm - N/A   Overcast
1:16 AM 12.2 °F 6.1 °F 10.4 °F 92% 30.17 in 10.0 mi NE 3.5 mph - N/A   Overcast
1:37 AM 12.2 °F 4.3 °F 12.2 °F 100% 30.17 in 10.0 mi ENE 4.6 mph - N/A   Overcast
1:56 AM 14.0 °F 6.5 °F 12.2 °F 93% 30.16 in 10.0 mi ENE 4.6 mph - N/A   Overcast
2:16 AM 14.0 °F 5.1 °F 12.2 °F 93% 30.15 in 7.0 mi ENE 5.8 mph - N/A   Overcast
2:37 AM 14.0 °F 6.5 °F 12.2 °F 93% 30.14 in 4.0 mi NE 4.6 mph - N/A   Overcast
2:56 AM 14.0 °F 6.5 °F 12.2 °F 93% 30.13 in 3.0 mi ENE 4.6 mph - N/A   Overcast
3:16 AM 14.0 °F 8.2 °F 12.2 °F 93% 30.12 in 4.0 mi ENE 3.5 mph - N/A   Overcast
3:37 AM 14.0 °F 8.2 °F 12.2 °F 93% 30.11 in 4.0 mi ENE 3.5 mph - N/A   Overcast
3:56 AM 14.0 °F 8.2 °F 12.2 °F 93% 30.10 in 5.0 mi NE 3.5 mph - N/A   Overcast
4:16 AM 14.0 °F 8.2 °F 12.2 °F 93% 30.09 in 5.0 mi NNE 3.5 mph - N/A   Overcast
4:37 AM 14.0 °F 5.1 °F 12.2 °F 93% 30.08 in 5.0 mi NE 5.8 mph - N/A   Overcast
4:56 AM 14.0 °F 6.5 °F 12.2 °F 93% 30.07 in 5.0 mi NE 4.6 mph - N/A   Overcast
5:17 AM 14.0 °F 6.5 °F 12.2 °F 93% 30.07 in 5.0 mi NNE 4.6 mph - N/A   Overcast
5:37 AM 15.8 °F 8.6 °F 12.2 °F 86% 30.06 in 5.0 mi NE 4.6 mph - N/A   Overcast
6:17 AM 15.8 °F 8.6 °F 12.2 °F 86% 30.05 in 5.0 mi ENE 4.6 mph - N/A   Overcast
6:56 AM 15.8 °F 8.6 °F 14.0 °F 93% 30.03 in 5.0 mi NE 4.6 mph - N/A   Overcast
7:17 AM 15.8 °F 10.2 °F 14.0 °F 93% 30.02 in 3.0 mi NE 3.5 mph - N/A   Overcast
7:56 AM 15.8 °F 7.2 °F 15.8 °F 100% 30.01 in 4.0 mi NE 5.8 mph - N/A   Overcast
8:56 AM 17.6 °F - 15.8 °F 93% 29.99 in 10.0 mi Calm Calm - N/A   Overcast
9:36 AM 19.4 °F 11.5 °F 17.6 °F 93% 29.99 in 5.0 mi ENE 5.8 mph - N/A   Overcast
9:57 AM 19.4 °F 14.3 °F 17.6 °F 93% 29.99 in 4.0 mi NE 3.5 mph - N/A   Overcast
10:16 AM 19.4 °F 11.5 °F 17.6 °F 93% 29.98 in 2.0 mi NE 5.8 mph - N/A Snow Light Snow
10:36 AM 19.4 °F 12.8 °F 19.4 °F 100% 29.97 in 1.0 mi NE 4.6 mph - N/A Snow Light Snow
10:57 AM 21.2 °F 16.4 °F 21.2 °F 100% 29.97 in 1.2 mi NE 3.5 mph - N/A Snow Light Snow
11:16 AM 21.2 °F 16.4 °F 21.2 °F 100% 29.97 in 1.0 mi NE 3.5 mph - N/A Snow Light Snow
11:36 AM 21.2 °F 16.4 °F 21.2 °F 100% 29.96 in 4.0 mi NE 3.5 mph - N/A Snow Light Snow
11:57 AM 23.0 °F - 21.2 °F 93% 29.95 in 7.0 mi Calm Calm - N/A Snow Light Snow
12:37 PM 24.8 °F 19.1 °F 23.0 °F 93% 29.94 in 3.0 mi NE 4.6 mph - N/A Snow Light Snow
12:56 PM 24.8 °F 19.1 °F 23.0 °F 93% 29.93 in 10.0 mi NE 4.6 mph - N/A   Overcast
1:16 PM 24.8 °F 19.1 °F 23.0 °F 93% 29.93 in 10.0 mi NNE 4.6 mph - N/A   Overcast
1:37 PM 24.8 °F 17.9 °F 21.2 °F 86% 29.92 in 10.0 mi ENE 5.8 mph - N/A   Overcast
1:56 PM 24.8 °F 19.1 °F 21.2 °F 86% 29.92 in 10.0 mi ENE 4.6 mph - N/A   Overcast
2:16 PM 26.6 °F 21.2 °F 21.2 °F 80% 29.91 in 10.0 mi NE 4.6 mph - N/A   Overcast
2:37 PM 26.6 °F 20.0 °F 21.2 °F 80% 29.90 in 10.0 mi NE 5.8 mph - N/A   Overcast
5:37 PM 26.6 °F 22.6 °F 21.2 °F 80% 29.88 in 10.0 mi ENE 3.5 mph - N/A   Overcast
5:56 PM 26.6 °F 22.6 °F 21.2 °F 80% 29.88 in 10.0 mi ENE 3.5 mph - N/A   Overcast
6:17 PM 26.6 °F 21.2 °F 21.2 °F 80% 29.89 in 10.0 mi ENE 4.6 mph - N/A   Overcast
6:37 PM 24.8 °F 20.5 °F 21.2 °F 86% 29.88 in 10.0 mi ENE 3.5 mph - N/A   Overcast
6:56 PM 24.8 °F 20.5 °F 21.2 °F 86% 29.88 in 10.0 mi ENE 3.5 mph - N/A   Overcast
7:17 PM 24.8 °F - 21.2 °F 86% 29.88 in 10.0 mi Calm Calm - N/A   Overcast
7:36 PM 24.8 °F - 21.2 °F 86% 29.88 in 10.0 mi Calm Calm - N/A   Overcast
7:56 PM 24.8 °F - 21.2 °F 86% 29.88 in 7.0 mi Calm Calm - N/A   Overcast
8:17 PM 24.8 °F - 21.2 °F 86% 29.88 in 10.0 mi Calm Calm - N/A   Overcast
8:36 PM 24.8 °F - 21.2 °F 86% 29.88 in 10.0 mi Calm Calm - N/A   Overcast
8:56 PM 24.8 °F - 21.2 °F 86% 29.87 in 5.0 mi Calm Calm - N/A Snow Light Snow
9:17 PM 23.0 °F - 19.4 °F 86% 29.87 in 5.0 mi Calm Calm - N/A Snow Light Snow
9:36 PM 23.0 °F - 19.4 °F 86% 29.86 in 7.0 mi Calm Calm - N/A Snow Light Snow
9:57 PM 21.2 °F - 19.4 °F 93% 29.86 in 10.0 mi Calm Calm - N/A Snow Light Snow
10:16 PM 21.2 °F - 19.4 °F 93% 29.85 in 10.0 mi Calm Calm - N/A Snow Light Snow
10:36 PM 21.2 °F - 19.4 °F 93% 29.85 in 5.0 mi Calm Calm - N/A Snow Light Snow
10:57 PM 17.6 °F - 17.6 °F 100% 29.85 in 7.0 mi Calm Calm - N/A Snow Light Snow
11:16 PM 19.4 °F - 17.6 °F 93% 29.85 in 10.0 mi Calm Calm - N/A   Overcast
11:57 PM 19.4 °F - 17.6 °F 93% 29.84 in 10.0 mi Calm Calm - N/A   Overcast